www.pogodaiklimat.ru

Погода и климат >> Архив погоды >> Малайзия >> Kuala Lumpur


АРХИВ ПОГОДЫ в Kuala Lumpur

Время (UTC), дата Ветер
(напр.,м/с)
 
Видим.   Явления Облачность Т
(С)
Тd
(С)
f
(%)
Тe
(С)
Тes
(С)
Комфортность P
(гПа)
Po
(гПа)
Тmin
(С)
Tmax
(С)
R
(мм)
R24
(мм)
S
(см)
00 18.05 штиль 0 4000 м мгла 9/4 150 м
[Cb cap Ac lent Ci sp]
+25.7 +24.5 93 +36 +36 очень
душно
1008.0 1005.5 +25.1 25
03 18.05 ЮВ 1 10 км мгла 9/3 420 м
[Cb cap Ac lent Ci sp]
+30.5 +24.7 71 +43 +50 опасность
перегрева
1008.9 1006.4
06 18.05 Ю 5 8000 м осадки на расстоянии 9/5 500 м
[Cb cap Ac lent Ci sp]
+30.5 +24.6 71 +43 +46 опасность
перегрева
1006.3 1003.8 0.2
09 18.05 С 2 8000 м слабый ливневой дождь, в посл. час гроза 10/5 500 м
[Cb cap Ac lent Cs]
+25.0 +23.3 90 +33 +35 очень
душно
1005.6 1003.1
12 18.05 СЗ 2 7000 м зарница {гроза, ливн. осадки} 9/3 500 м
[Cb cap Ac trans Ci sp]
+25.3 +23.0 87 +34 +34 очень
душно
1006.9 1004.4 +33.2 2
15 18.05 ЮВ 1 7000 м зарница 9/4 500 м
[Cb cap Ac lent Ci sp]
+25.3 +23.7 91 +34 +34 очень
душно
1009.6 1007.1
18 18.05 штиль 0 6000 м зарница 9/4 500 м
[Cb cap Ac und Cs]
+25.6 +24.0 91 +35 +35 очень
душно
1008.8 1006.3
21 18.05 СЗ 1 4000 м зарница 9/4 500 м
[Cb cap Ac trans Ci sp]
+25.2 +23.8 92 +34 +34 очень
душно
1007.0 1004.5
00 19.05 СЗ 2 6000 м мгла 10/4 800 м
[Sc Ac und Cs]
+25.3 +23.6 90 +34 +35 очень
душно
1008.7 1006.2 +25.2 2
03 19.05 СЗ 2 10 км мгла 9/3 570 м
[Cu Sc Ac lent Ci sp]
+29.2 +24.4 75 +41 +47 опасность
перегрева
1008.9 1006.4
06 19.05 З 3 12 км мгла 9/3 570 м
[Cu med, cong Ac trans Ci sp]
+32.2 +24.3 63 +44 +51 опасность
перегрева
1006.6 1004.1
09 19.05 В 3 9000 м гроза, ливневой дождь 9/6 150 м
[Cb cap Ac und Ci sp]
+26.6 +24.1 86 +37 +38 очень
душно
1005.6 1003.1
12 19.05 З 3 8000 м гроза, ливневой дождь 10/6 150 м
[Cb cap Ac und Cs]
+23.3 +21.9 92 +32 +32 очень
душно
1007.5 1005.0 +32.4 18
15 19.05 С 2 9000 м в посл. час дождь 9/4 500 м
[Cb cap Ac lent Cs]
+24.6 +22.7 89 +32 +32 очень
душно
1009.1 1006.6
18 19.05 штиль 0 9000 м зарница {гроза, дождь} 9/4 500 м
[Cb cap Ac lent Ci sp]
+24.7 +23.4 92 +33 +33 очень
душно
1008.7 1006.2 0.0
21 19.05 штиль 0 9000 м мгла 9/1 800 м
[Sc Ac trans Ci sp]
+24.6 +23.5 94 +33 +33 очень
душно
1007.2 1004.7
00 20.05 штиль 0 8000 м мгла 9/3 500 м
[Cb cap Ac lent Ci ing]
+24.9 +23.7 93 +34 +34 очень
душно
1008.8 1006.3 +24.7 18
03 20.05 С 1 13 км мгла 9/3 500 м
[Cb cap Ac trans Ci sp]
+30.6 +23.9 67 +42 +48 опасность
перегрева
1009.8 1007.3
06 20.05 Ю 2 15 км мгла 9/4 500 м
[Cb cap Ac trans Ci sp]
+32.8 +23.1 57 +43 +50 опасность
перегрева
1007.9 1005.4
09 20.05 Ю 4 10 км осадки на расстоянии 10/4 500 м
[Cb cap Ac lent Cs]
+30.2 +24.8 73 +43 +45 опасность
перегрева
1005.9 1003.4
12 20.05 Ю 3 10 км мгла 9/3 800 м
[Sc Ac lent Cs]
+28.1 +24.7 82 +40 +40 очень
душно
1006.8 1004.3 +28.6
15 20.05 ЮВ 2 10 км мгла 9/4 210 м
[Sc Ac lent Cs]
+27.8 +24.7 83 +39 +39 очень
душно
1008.5 1006.0
18 20.05 СЗ 1 10 км мгла 9/3 800 м
[Sc Ac lent Ci sp]
+26.9 +24.6 87 +38 +38 очень
душно
1008.5 1006.0
21 20.05 штиль 0 7000 м зарница 9/3 500 м
[Cb cap Ac trans Ci sp]
+25.9 +24.3 91 +36 +36 очень
душно
1007.6 1005.1
00 21.05 штиль 0 10 км мгла 9/3 500 м
[Cb cap Ac trans Ci sp]
+26.5 +24.4 88 +37 +38 очень
душно
1008.8 1006.3 +24.9
03 21.05 ЮВ 2 14 км мгла 9/1 500 м
[Cb cap Ac trans Ci sp]
+30.9 +23.8 66 +42 +49 опасность
перегрева
1009.7 1007.2
06 21.05 З 3 14 км мгла 9/3 500 м
[Cb calv Ac trans Ci sp]
+33.5 +23.3 55 +44 +50 опасность
перегрева
1007.7 1005.2
09 21.05 ЮЗ 2 10 км гроза без осадков {ливн. осадки} 10/4 500 м
[Cb cap Ac trans Cs]
+26.4 +23.1 82 +35 +37 очень
душно
1006.6 1004.1
12 21.05 штиль 0 12 км мгла {гроза, ливн. осадки} 9/3 660 м
[Sc Ac lent Ci sp]
+26.8 +22.9 79 +36 +36 очень
душно
1007.5 1005.0 +33.7 0.4
15 21.05 СЗ 1 6000 м мгла 9/3 800 м
[Sc Ac und Ci sp]
+26.5 +24.3 88 +37 +37 очень
душно
1008.8 1006.3
18 21.05 СЗ 4 9000 м в посл. час дождь 10/4 150 м
[Cb cap Ac lent Cs]
+26.0 +24.0 89 +36 +36 очень
душно
1009.0 1006.5 0.0
21 21.05 СЗ 2 9000 м зарница 9/4 500 м
[Cb cap Ac lent Cs]
+25.1 +23.6 91 +34 +34 очень
душно
1007.7 1005.2
00 22.05 С 1 7000 м мгла 9/3 500 м
[Cb cap Ac lent Cs]
+25.7 +23.9 90 +35 +36 очень
душно
1009.0 1006.5 +24.8 0.4
03 22.05 ЮЗ 1 10 км мгла 9/4 570 м
[Cu med, cong Ac trans Ci fib]
+31.1 +24.2 67 +43 +49 опасность
перегрева
1010.1 1007.6
06 22.05 ЮЗ 4 9000 м гроза без осадков 9/5 500 м
[Cb cap Ac trans Ci sp]
+29.8 +24.8 75 +43 +47 опасность
перегрева
1007.7 1005.2
09 22.05 С 1 10 км гроза без осадков {ливн. осадки} 9/5 480 м
[Cb cap Ac lent Ci sp]
+25.9 +24.2 90 +36 +38 очень
душно
1006.0 1003.5
12 22.05 ЮВ 1 7000 м зарница {гроза, ливн. осадки} 9/3 500 м
[Cb cap Ac lent Ci sp]
+25.9 +24.5 92 +36 +36 очень
душно
1007.8 1005.3 +32.4 5
15 22.05 СЗ 1 9000 м мгла 9/1 900 м
[Sc Ac lent Ci sp]
+26.1 +24.3 90 +36 +36 очень
душно
1010.2 1007.7
18 22.05 штиль 0 8000 м зарница 9/1 500 м
[Cb cap Ac lent Ci sp]
+25.5 +24.2 93 +35 +35 очень
душно
1009.2 1006.7
21 22.05 штиль 0 5000 м зарница 9/1 500 м
[Cb cap Ac lent Ci sp]
+25.1 +23.9 93 +34 +34 очень
душно
1008.0 1005.5
00 23.05 штиль 0 4000 м мгла 9/1 500 м
[Cb cap Ac lent Ci sp]
+25.3 +24.1 93 +35 +35 очень
душно
1009.2 1006.7 +25.0 5
03 23.05 Ю 2 10 км мгла 9/4 500 м
[Cb calv Ac lent Ci sp]
+30.4 +24.1 69 +42 +47 опасность
перегрева
1010.5 1008.0
06 23.05 Ю 3 8000 м гроза без осадков {ливн. осадки} 10/6 480 м
[Cb cap Ac und Cs]
+27.3 +25.5 90 +40 +43 очень
душно
1008.8 1006.3 12
09 23.05 В 1 5000 м слабый ливневой дождь, в посл. час гроза 10/6 150 м
[Cb cap Ac lent Cs]
+25.2 +24.0 93 +35 +36 очень
душно
1006.7 1004.2
12 23.05 ЮВ 2 8000 м в посл. час дождь {гроза} 9/3 750 м
[Sc Ac lent Cs]
+25.4 +24.2 93 +35 +35 очень
душно
1008.1 1005.6 +31.2 27
15 23.05 В 1 8000 м мгла 9/3 750 м
[Sc Ac lent Ci sp]
+25.1 +23.9 93 +34 +34 очень
душно
1010.5 1008.0
18 23.05 штиль 0 9000 м зарница 9/4 500 м
[Cb cap Ac trans Ci fib]
+25.0 +23.8 93 +34 +34 очень
душно
1009.3 1006.8
21 23.05 ЮВ 2 8000 м зарница 9/4 480 м
[Cb cap Ac trans Ci sp]
+24.7 +23.0 90 +33 +33 очень
душно
1008.0 1005.5
00 24.05 В 2 10 км мгла 9/5 240 м
[Sc Ac lent Ci sp]
+25.5 +23.4 88 +34 +35 очень
душно
1008.8 1006.3 +24.4 39
03 24.05 ЮВ 3 13 км мгла 9/3 570 м
[Cu med, cong Ac trans Ci sp]
+29.7 +23.3 69 +40 +45 очень
душно
1009.9 1007.4
06 24.05 ЮВ 2 13 км мгла 9/4 570 м
[Cu med, cong Ac trans Ci sp]
+32.2 +23.8 61 +44 +50 опасность
перегрева
1007.5 1005.0
09 24.05 З 4 12 км мгла 9/4 570 м
[Cu med, cong Ac trans Ci sp]
+31.2 +25.2 70 +45 +46 опасность
перегрева
1005.7 1003.2
12 24.05 штиль 0 6000 м слабый ливневой дождь, в посл. час гроза 10/4 500 м
[Cb cap Ac lent Cs]
+24.9 +23.0 89 +33 +33 очень
душно
1007.7 1005.2 +33.1 8
15 24.05 штиль 0 8000 м зарница {дождь} 9/3 500 м
[Cb cap Ac lent Ci sp]
+25.6 +24.3 93 +36 +36 очень
душно
1010.0 1007.5
18 24.05 штиль 0 8000 м зарница {дождь} 9/1 500 м
[Cb cap Ac trans Ci sp]
+25.3 +24.3 94 +35 +35 очень
душно
1009.0 1006.5 0.2
21 24.05 З 1 9000 м зарница 9/3 500 м
[Cb cap Ac trans Ci sp]
+25.3 +24.3 94 +35 +35 очень
душно
1008.3 1005.8

 

Местоположение метеостанции Kuala Lumpur (Малайзия): широта 3.12 долгота 101.55 высота над уровнем моря 22 м.

В архиве по умолчанию представлена погода в Kuala Lumpur за последнюю неделю. Архивные данные за месяц целиком и за предыдущие месяцы, начиная с января 2011 года, Вы можете получить, выбрав интересующий диапазон дат из раскрывающегося списка и нажав кнопку "Ввод!".


*Определитесь, кто Вы:
робот инопланетянин человек

Внимание! Время в таблицах - всемирное. Для получения местного времени необходимо прибавить поправку, которая в Kuala Lumpur равна 7 ч.

Смотрите также архив погоды в соседних городах и на ближайших метеорологических станциях:

Погода в Kuala Lumpur Int Airport (Малайзия) (48 км)
Погода в Malacca (Малайзия) (122 км)
Погода в Cameron Highlands (Малайзия) (151 км)
Погода в Sitiawan (Малайзия) (155 км)
Погода в Ipoh (Малайзия) (169 км)
Погода в Kuantan (Малайзия) (198 км)
Погода в Penang (Малайзия) (282 км)
Погода в Johore Bharu / Senai (Малайзия) (288 км)
Погода в Butterworth Air Base (Малайзия) (292 км)
Погода в Pekanbaru (Индонезия) (295 км)

Пояснения к столбцам:

Ветер - указаны скорость ветра в м/с - средняя за 10 мин, порывы в срок и между сроками (в фигурных скобках) и направление, откуда дует ветер: С - северный, СВ - северо-восточный, В - восточный, ЮВ - юго-восточный, Ю - южный, ЮЗ - юго-западный, З - западный, СЗ - северо-западный.
Видимость - горизонтальная дальность видимости в метрах или километрах. При видимости от 1 до 10 км при отсутствии осадков обычно наблюдается дымка, при ухудшении видимости до 1 км и менее - туман. В сухую погоду видимость может ухудшаться дымом, пылью или мглою.
Явления - указаны атмосферные явления, наблюдавшиеся в срок или в последний час перед сроком; фигурными скобками обозначены явления, наблюдавшиеся между сроками (за 1-3 часа до срока); квадратными скобками обозначены град или гололедные отложения с указанием их диаметра в мм.
Облачность - указаны через наклонную черту общая и нижняя облачность в баллах и высота нижней границы облаков в метрах; квадратными скобками обозначены формы облаков: Ci - перистые, Cs - перисто-слоистые, Cc - перисто-кучевые, Ac - высококучевые, As - высокослоистые, Sc - слоисто-кучевые, Ns - слоисто-дождевые, Cu - кучевые, Cb - кучево-дождевые. Подробнее классификацию облаков см. в Атласе облаков (PDF).
T - Температура воздуха - температура, измеренная на высоте 2 м над землей.
Td - Температура точки росы - температура, при понижении до которой содержащийся в воздухе водяной пар достигнет насыщения.
f - Относительная влажность воздуха - влажноcть воздуха, измеренная на высоте 2 м над землей.
Te - Эффективная температура - температура, которую ощущает одетый по сезону человек в тени. Характеристика душности погоды. При расчете учитывается влияние влажности воздуха и скорости ветра на теплоощущения человека.
Tes - Эффективная температура на солнце - температура, которую ощущает человек, с поправкой на солнечный нагрев. Характеристика знойности погоды. Зависит от высоты солнца над горизонтом, облачности и скорости ветра. Ночью, в пасмурную погоду, а также при ветре 12 м/с и более поправка равна нулю.
P - Атмосферное давление - приведенное к уровню моря атмосферное давление.
Po - Атмосферное давление - измеренное на уровне метеостанции атмосферное давление.
Tmin - Минимальная температура - минимум температуры воздуха на высоте 2 м над землей.
Tmax - Максимальная температура - максимум температуры воздуха на высоте 2 м над землей.
R - Количество осадков - Количество выпавших осадков за период времени, мм. При наведении курсора мыши на число - период времени, за который выпало указанное количество осадков.
R24 - Количество осадков - Количество выпавших осадков за 24 часа, мм.
S - Снежный покров - Высота снежного покрова, см. При наведении курсора мыши на число - состояние снежного покрова и степень покрытия местности в баллах.